STARLINK-34648, 65091

Orbit data source: Space-Track

STARLINK-34648, 65091 is a payload satellite owned by SpaceX/Seattle (US) in LEO that was launched on Mon, 04 Aug 2025 UTC via an FALCON 9 launch vehicle from the Air Force Eastern Test Range (AFETR). Payload-class satellites include a variety of spacecraft equipped with specific instruments for various scientific and technological missions. These include communications satellites like Starlink; space stations such as the ISS; scientific satellites like the Hubble; Earth observation satellites from companies like Planet Labs, Umbra, and HawkEye 360; GPS; miniature CubeSats for education and research; and military/defense satellites.

Loading next visibility...
Identifier
65091, 2025-167P
Orbit
LEO
Country
Flag of USUS
Related business
Manufacturer
SpaceX/Seattle
Mission
Operational Commercial Communications
Bus & Motor
STARLINK V2MO, Unknown motor
Mass
575 kg wet, ~530 kg dry
Launch date (UTC)
2025-08-04 (11 months ago)
Launch vehicle
FALCON 9
Launch site
Air Force Eastern Test Range (AFETR)
Object type
Payload
Rocket body
Debris
Shape & HBR
Box + 2 Pan, 17.7 m
Radar Cross Section
36.964 m², Large (>1 m²)

Expand to show TLE details & history
Last TLE update: 2 days ago

TLE from 2 days ago
0 STARLINK-34648
1 65091U 25167P   26172.94624947 -.00316626  00000-0 -78930-2 0  9990
2 65091  53.1587 257.3012 0001900  64.3036 295.8165 15.40909693 49515
Epoch: 2026-06-21T22:42Z
TLE epoch observation values (Epoch: 2026-06-21T22:42:35.954Z)
Latitude
-0.00004°
Longitude
6.51213°
Altitude
443.763 km
Speed
7.647 km/s
True Right ascension
17h 09m 12s
True Declination
0° 00' 00"
Sunlit
Object was in full shadow at epoch
Visualization orbit readout
Latitude
Unknown
Longitude
Unknown
Altitude
Unknown
Speed
Unknown
Apparent Right ascension
Unknown
Apparent Declination
Unknown
Sunlit
N/A
Visualization observer readout
Local Sidereal Time
13:48:58
Azimuth
Unknown
Elevation
Unknown
Doppler factor
Unknown
Orbital elements
Apogee altitude
444.977 km
Perigee altitude
442.385 km
Semi-major axis
6,821.818 km
Eccentricity
0.00019
Inclination
53.1587°
RAAN
257.3012°
Arg. of periapsis
64.3036°
True anomaly
295.7969°
Mean anomaly
295.8165°
Eccentric anomaly
295.8067°
Mean motion
3.85206 °/min
Orbital period
93.46 mins
BSTAR
-0.007893
Loading maneuver chart data...
Computing Atmospheric mass density...
Loading historical data...
Loading historical data...
Loading historical data...
Loading historical data...
Loading historical data...
Loading historical data...
Loading historical data...

Documentation

Showing up to 5 results
|